Location: Casone le Fosse
(44.6547°N, 12.1103°E)
Time: 12:00:38
(UTC+00:00)

ERS-2 - Pass Details

Date: 29 October 2020
Orbit: 493 x 497 km, 98.6° (Epoch: 27 November)

Event Time Altitude Azimuth Distance (km) Brightness Sun altitude
Rises 17:11:48 0° 8° (N) 2,587 5.6 -12.5°
Reaches altitude 10° 17:13:56 10° 2° (N) 1,700 4.7 -12.9°
Maximum altitude 17:17:26 46° 289° (WNW) 679 3.2 -13.5°
Drops below altitude 10° 17:20:54 10° 215° (SW) 1,688 5.4 -14.2°
Sets 17:23:01 0° 209° (SSW) 2,566 6.2 -14.5°
